Weather History for KGYL - May, 2014

Change the Weather History Date:

Thursday, May 15, 2014

  Actual Average (KHCD) Record (KHCD)
Temperature  
Mean Temperature 42 °F -  
Max Temperature 48 °F 72 °F 96 °F (2001)
Min Temperature 37 °F 45 °F 29 °F (1967)
Degree Days  
Heating Degree Days 23    
Moisture  
Dew Point 30 °F    
Average Humidity 60    
Maximum Humidity 76    
Minimum Humidity 45    
Precipitation  
Precipitation 0.00 in - - ()
Sea Level Pressure  
Sea Level Pressure 30.15 in    
Wind  
Wind Speed 10 mph (NNW)    
Max Wind Speed 15 mph    
Max Gust Speed 21 mph    
Visibility 10 miles    
Events      
Averages and records for this station are not official NWS values.
T = Trace of Precipitation, MM = Missing Value Source: NWS Daily Summary

Daily Weather History Graph

Daily Weather History Graph

Search for Another Location

Airport or City:

Trip Planner

Search our weather history database for the weather conditions in past years. The results will help you decide how hot, cold, wet, or windy it might be!

Date:

Astronomy

May. 15, 2014 Rise Set
Actual Time 5:48 AM CDT 8:38 PM CDT
Civil Twilight 5:14 AM CDT 9:12 PM CDT
Nautical Twilight 4:30 AM CDT 9:55 PM CDT
Astronomical Twilight 3:40 AM CDT 10:46 PM CDT
Moon 9:46 PM CDT (5/15) 6:36 AM CDT (5/15)
Length of Visible Light 15h 58m
Length of Day
14h 50m
Full, 99% of the Moon is Illuminated
May 15
Full
May 21
Last Quarter
May 28
New
Jun 5
First Quarter
Jun 12
Full

Hourly Weather History & Observations

Time (CDT) Temp. Windchill Dew Point Humidity Pressure Visibility Wind Dir Wind Speed Gust Speed Precip Events Conditions
12:14 AM 41.4 °F 35.7 °F 30.9 °F 66% 30.20 in 10.0 mi NNW 9.2 mph - N/A   Overcast
12:34 AM 41.0 °F 35.2 °F 30.9 °F 67% 30.20 in 10.0 mi NNW 9.2 mph - N/A   Overcast
12:54 AM 41.0 °F 34.7 °F 30.9 °F 67% 30.19 in 10.0 mi NNW 10.4 mph - N/A   Overcast
1:14 AM 40.5 °F 34.6 °F 30.9 °F 69% 30.19 in 10.0 mi NNW 9.2 mph - N/A   Mostly Cloudy
1:34 AM 40.1 °F 34.7 °F 30.9 °F 70% 30.19 in 10.0 mi NNW 8.1 mph - N/A   Scattered Clouds
1:54 AM 40.1 °F 34.1 °F 30.9 °F 70% 30.18 in 10.0 mi NNW 9.2 mph - N/A   Mostly Cloudy
2:14 AM 39.6 °F 34.0 °F 30.9 °F 71% 30.17 in 10.0 mi NNW 8.1 mph - N/A   Overcast
2:34 AM 39.2 °F 33.6 °F 30.7 °F 72% 30.17 in 10.0 mi North 8.1 mph - N/A   Overcast
2:54 AM 38.3 °F 31.9 °F 30.9 °F 75% 30.17 in 10.0 mi North 9.2 mph - N/A   Scattered Clouds
3:14 AM 37.9 °F 32.1 °F 30.7 °F 75% 30.17 in 10.0 mi NNW 8.1 mph - N/A   Clear
3:34 AM 37.8 °F 31.8 °F 30.9 °F 76% 30.17 in 10.0 mi NNW 8.1 mph - N/A   Scattered Clouds
3:54 AM 37.9 °F 32.1 °F 31.1 °F 76% 30.17 in 10.0 mi North 8.1 mph - N/A   Overcast
4:15 AM 38.7 °F 33.6 °F 31.1 °F 74% 30.16 in 10.0 mi North 6.9 mph - N/A   Overcast
4:34 AM 38.8 °F 32.6 °F 31.1 °F 74% 30.16 in 10.0 mi NNW 9.2 mph - N/A   Overcast
4:54 AM 39.0 °F 33.4 °F 31.1 °F 73% 30.16 in 10.0 mi North 8.1 mph - N/A   Overcast
5:14 AM 39.2 °F 33.0 °F 31.1 °F 73% 30.16 in 10.0 mi North 9.2 mph - N/A   Overcast
5:34 AM 39.2 °F 33.0 °F 31.1 °F 73% 30.15 in 10.0 mi North 9.2 mph - N/A   Overcast
5:55 AM 39.2 °F 33.6 °F 31.1 °F 73% 30.16 in 10.0 mi North 8.1 mph - N/A   Overcast
6:14 AM 39.4 °F 34.5 °F 31.5 °F 73% 30.16 in 10.0 mi North 6.9 mph - N/A   Overcast
6:34 AM 39.6 °F 33.0 °F 32.0 °F 74% 30.16 in 10.0 mi NNW 10.4 mph - N/A   Overcast
6:54 AM 40.1 °F 33.2 °F 32.0 °F 73% 30.16 in 10.0 mi North 11.5 mph - N/A   Overcast
7:14 AM 40.1 °F 33.6 °F 32.0 °F 73% 30.16 in 10.0 mi North 10.4 mph 16.1 mph N/A   Overcast
7:35 AM 40.5 °F 32.8 °F 32.0 °F 72% 30.16 in 10.0 mi North 13.8 mph 18.4 mph N/A   Overcast
7:54 AM 41.2 °F 33.7 °F 32.4 °F 71% 30.16 in 10.0 mi North 13.8 mph 17.3 mph N/A   Overcast
8:14 AM 42.1 °F 34.9 °F 32.0 °F 67% 30.17 in 10.0 mi NNW 13.8 mph 17.3 mph N/A   Overcast
8:34 AM 42.4 °F 36.1 °F 31.8 °F 66% 30.17 in 10.0 mi North 11.5 mph 20.7 mph N/A   Scattered Clouds
8:54 AM 43.9 °F 37.5 °F 32.0 °F 63% 30.17 in 10.0 mi North 12.7 mph 16.1 mph N/A   Scattered Clouds
9:14 AM 44.6 °F 38.4 °F 31.5 °F 60% 30.16 in 10.0 mi North 12.7 mph 18.4 mph N/A   Mostly Cloudy
9:35 AM 45.5 °F 39.6 °F 31.8 °F 59% 30.16 in 10.0 mi NNW 12.7 mph - N/A   Overcast
9:54 AM 45.1 °F 38.4 °F 32.0 °F 60% 30.16 in 10.0 mi NNW 15.0 mph 18.4 mph N/A   Mostly Cloudy
10:14 AM 46.4 °F 40.7 °F 31.5 °F 56% 30.15 in 10.0 mi NNW 12.7 mph 20.7 mph N/A   Mostly Cloudy
10:35 AM 46.8 °F - 30.7 °F 54% 30.16 in 10.0 mi North 11.5 mph 19.6 mph N/A   Scattered Clouds
10:54 AM 47.5 °F - 30.7 °F 52% 30.15 in 10.0 mi NNW 15.0 mph 19.6 mph N/A   Scattered Clouds
11:14 AM 46.4 °F 41.1 °F 29.3 °F 51% 30.15 in 10.0 mi NNW 11.5 mph 18.4 mph N/A   Overcast
11:34 AM 45.9 °F 41.2 °F 28.4 °F 51% 30.15 in 10.0 mi North 9.2 mph 18.4 mph N/A   Overcast
11:54 AM 46.4 °F 41.5 °F 28.8 °F 50% 30.15 in 10.0 mi North 10.4 mph 17.3 mph N/A   Overcast
12:14 PM 46.4 °F 41.1 °F 28.6 °F 50% 30.15 in 10.0 mi North 11.5 mph - N/A   Overcast
12:34 PM 46.4 °F 40.7 °F 27.1 °F 47% 30.15 in 10.0 mi NNW 12.7 mph 18.4 mph N/A   Overcast
12:54 PM 46.4 °F 40.4 °F 26.4 °F 46% 30.15 in 10.0 mi North 13.8 mph 19.6 mph N/A   Overcast
1:14 PM 47.3 °F - 27.0 °F 45% 30.15 in 10.0 mi North 10.4 mph - N/A   Overcast
2:15 PM 46.8 °F - 26.8 °F 46% 30.14 in 10.0 mi North 11.5 mph - N/A   Overcast
2:34 PM 47.3 °F - 27.0 °F 45% 30.14 in 10.0 mi NNW 9.2 mph 17.3 mph N/A   Overcast
2:54 PM 47.5 °F - 28.6 °F 48% 30.14 in 10.0 mi NNW 12.7 mph 16.1 mph N/A   Overcast
3:15 PM 47.7 °F - 27.9 °F 46% 30.13 in 10.0 mi NW 10.4 mph - N/A   Overcast
3:34 PM 47.8 °F - 28.2 °F 47% 30.13 in 10.0 mi NW 11.5 mph - N/A   Overcast
3:54 PM 47.7 °F - 28.0 °F 47% 30.13 in 10.0 mi NNW 11.5 mph 19.6 mph N/A   Overcast
4:14 PM 47.8 °F - 28.2 °F 47% 30.12 in 10.0 mi NW 12.7 mph - N/A   Overcast
4:34 PM 47.3 °F - 28.4 °F 48% 30.12 in 10.0 mi NNW 11.5 mph - N/A   Overcast
4:55 PM 46.9 °F - 30.2 °F 52% 30.12 in 10.0 mi NNW 13.8 mph 17.3 mph N/A   Overcast
5:14 PM 46.8 °F - 29.5 °F 51% 30.12 in 10.0 mi NNW 12.7 mph 17.3 mph N/A   Overcast
5:34 PM 46.8 °F - 27.3 °F 47% 30.12 in 10.0 mi North 12.7 mph 18.4 mph N/A   Overcast
5:55 PM 46.4 °F 41.5 °F 27.9 °F 48% 30.12 in 10.0 mi North 10.4 mph - N/A   Overcast
6:14 PM 45.9 °F 40.0 °F 29.3 °F 52% 30.12 in 10.0 mi North 12.7 mph 16.1 mph N/A   Overcast
6:34 PM 46.0 °F 40.6 °F 29.1 °F 52% 30.12 in 10.0 mi NNW 11.5 mph 16.1 mph N/A   Overcast
6:55 PM 46.4 °F 41.5 °F 29.8 °F 53% 30.12 in 10.0 mi NNW 10.4 mph - N/A   Overcast
7:14 PM 46.4 °F 41.9 °F 27.7 °F 48% 30.12 in 10.0 mi North 9.2 mph - N/A   Overcast
7:34 PM 46.4 °F 41.9 °F 28.0 °F 49% 30.12 in 10.0 mi North 9.2 mph - N/A   Overcast
7:54 PM 45.9 °F 42.3 °F 29.7 °F 53% 30.12 in 10.0 mi NNW 6.9 mph - N/A   Overcast
8:14 PM 45.5 °F 41.8 °F 28.9 °F 52% 30.13 in 10.0 mi North 6.9 mph - N/A   Overcast
8:34 PM 45.0 °F 41.8 °F 30.2 °F 56% 30.12 in 10.0 mi NNW 5.8 mph - N/A   Overcast
8:54 PM 44.8 °F 42.4 °F 30.9 °F 58% 30.12 in 10.0 mi NW 4.6 mph - N/A   Overcast
9:14 PM 44.6 °F 42.2 °F 30.7 °F 58% 30.13 in 10.0 mi NW 4.6 mph - N/A   Overcast
9:34 PM 44.4 °F 42.0 °F 31.3 °F 60% 30.13 in 10.0 mi NW 4.6 mph - N/A   Overcast
9:54 PM 44.2 °F 42.7 °F 31.1 °F 60% 30.13 in 10.0 mi NW 3.5 mph - N/A   Overcast
10:14 PM 43.9 °F 41.3 °F 31.6 °F 62% 30.14 in 10.0 mi NW 4.6 mph - N/A   Overcast
10:34 PM 43.7 °F 41.1 °F 32.0 °F 63% 30.13 in 10.0 mi WNW 4.6 mph - N/A   Overcast
10:54 PM 43.5 °F 40.9 °F 31.8 °F 63% 30.13 in 10.0 mi WNW 4.6 mph - N/A   Overcast
11:14 PM 43.2 °F 40.5 °F 31.6 °F 64% 30.13 in 10.0 mi NW 4.6 mph - N/A   Overcast
11:34 PM 43.0 °F 40.3 °F 32.0 °F 65% 30.12 in 10.0 mi WNW 4.6 mph - N/A   Overcast
11:54 PM 43.2 °F 39.7 °F 31.5 °F 63% 30.12 in 10.0 mi NW 5.8 mph - N/A   Overcast